Volver al catálogo

ONEWEB-0646

ActivoComunicacionesPO
NORAD 55810·PAYLOAD·🇬🇧 United Kingdom

Lanzado Mar 9, 2023 desde Cape Canaveral Space Force Station

Loading…

Próximos Pases (próximas 24 horas)

TLE

ActualizadoSource: CelesTrak SupGP

Época: Sep 14, 2026, 19:57 UTC

1 55810C 23029Q   26257.83143936 -.00000375  00000+0 -93703-3 0  2572
2 55810  87.9109 287.1155 0001814  86.1638 308.0374 13.19727918    14

Sigue ONEWEB-0646 en tiempo real con AllMySat

Download on the App Store